DA1VID Weather Reports


time (UTC)temp
C
wind
direction
speed
KPH
gust
KPH
rain 1hr
cm
rain 24hr
cm
rain mn
cm
humidity
%
barometer
mb
20260507073539 11 74 3.2 8.0 0.00 0.00 0.00 78 1014.4
20260507072524 10 74 4.8 9.7 0.00 0.00 0.00 82 1014.3
20260507071520 10 70 3.2 6.4 0.00 0.00 0.00 85 1014.3
20260507070515 9 350 3.2 8.0 0.00 0.00 0.00 85 1014.2
20260507065522 9 18 3.2 6.4 0.00 0.00 0.00 86 1014.1
20260507064517 8 349 3.2 6.4 0.00 0.00 0.00 87 1014.1
20260507063523 8 33 1.6 4.8 0.00 0.00 0.00 87 1014.0
20260507062519 8 16 3.2 6.4 0.00 0.00 0.00 89 1013.7
20260507061545 8 16 3.2 6.4 0.00 0.00 0.00 90 1013.8
20260507060520 7 354 4.8 11.3 0.00 0.00 0.00 90 1013.6
20260507055516 7 353 3.2 8.0 0.00 0.00 0.00 91 1013.5
20260507054522 7 15 3.2 8.0 0.00 0.00 0.00 91 1013.5
20260507053518 7 358 4.8 8.0 0.00 0.00 0.00 92 1013.4
20260507052523 7 353 3.2 9.7 0.00 0.00 0.00 92 1013.4
20260507051519 7 336 4.8 9.7 0.00 0.00 0.00 92 1013.2
20260507050525 7 352 3.2 6.4 0.00 0.00 0.00 92 1013.2
20260507045521 7 323 4.8 9.7 0.00 0.00 0.00 92 1012.9
20260507044537 7 360 3.2 9.7 0.00 0.00 0.00 92 1012.8
20260507043523 7 337 3.2 6.4 0.00 0.00 0.00 92 1012.8
20260507042518 7 344 3.2 8.0 0.00 0.00 0.00 92 1012.7
20260507041524 7 339 4.8 8.0 0.00 0.00 0.00 93 1012.7
20260507040520 7 13 1.6 4.8 0.00 0.00 0.00 93 1012.7